Time,TemperatureF,DewpointF,PressureIn,WindDirection,WindDirectionDegrees,WindSpeedMPH,WindSpeedGustMPH,Humidity,HourlyPrecipIn,Conditions,Clouds,dailyrainin,SoftwareType,DateUTC
2013-03-12 00:04:00,32.2,22.1,29.96,North,-999,-999.0,-999.0,66,-99.99,,,-99.99,meteohub,2013-03-12 05:04:00,
2013-03-12 00:10:00,32.0,21.9,29.96,North,-999,-999.0,-999.0,66,-99.99,,,-99.99,meteohub,2013-03-12 05:10:00,
2013-03-12 00:16:00,32.2,22.1,29.95,North,-999,-999.0,-999.0,66,-99.99,,,-99.99,meteohub,2013-03-12 05:16:00,
2013-03-12 00:22:00,32.2,21.7,29.95,North,-999,-999.0,-999.0,65,-99.99,,,-99.99,meteohub,2013-03-12 05:22:00,
2013-03-12 00:28:00,32.4,21.9,29.95,North,-999,-999.0,-999.0,65,-99.99,,,-99.99,meteohub,2013-03-12 05:28:00,
2013-03-12 00:34:00,32.4,21.9,29.95,North,-999,-999.0,-999.0,65,-99.99,,,-99.99,meteohub,2013-03-12 05:34:00,
2013-03-12 00:41:00,32.4,21.9,29.96,North,-999,-999.0,-999.0,65,-99.99,,,-99.99,meteohub,2013-03-12 05:41:00,
2013-03-12 00:47:00,32.5,21.4,29.96,North,-999,-999.0,-999.0,63,-99.99,,,-99.99,meteohub,2013-03-12 05:47:00,
2013-03-12 00:53:00,32.9,21.4,29.96,North,-999,-999.0,-999.0,62,-99.99,,,-99.99,meteohub,2013-03-12 05:53:00,
2013-03-12 00:59:00,33.3,21.2,29.95,North,-999,-999.0,-999.0,61,-99.99,,,-99.99,meteohub,2013-03-12 05:59:00,
2013-03-12 01:06:00,33.3,21.2,29.95,North,-999,-999.0,-999.0,61,-99.99,,,-99.99,meteohub,2013-03-12 06:06:00,
2013-03-12 01:12:00,33.4,21.4,29.96,North,-999,-999.0,-999.0,61,-99.99,,,-99.99,meteohub,2013-03-12 06:12:00,
2013-03-12 01:18:00,33.4,21.0,29.96,North,-999,-999.0,-999.0,60,-99.99,,,-99.99,meteohub,2013-03-12 06:18:00,
2013-03-12 01:24:00,33.6,21.2,29.96,North,-999,-999.0,-999.0,60,-99.99,,,-99.99,meteohub,2013-03-12 06:24:00,
2013-03-12 01:30:00,33.8,21.7,29.96,North,-999,-999.0,-999.0,61,-99.99,,,-99.99,meteohub,2013-03-12 06:30:00,
2013-03-12 01:36:00,33.6,21.6,29.96,North,-999,-999.0,-999.0,61,-99.99,,,-99.99,meteohub,2013-03-12 06:36:00,
2013-03-12 01:42:00,33.6,21.6,29.96,North,-999,-999.0,-999.0,61,-99.99,,,-99.99,meteohub,2013-03-12 06:42:00,
2013-03-12 01:47:00,33.4,21.7,29.96,North,-999,-999.0,-999.0,62,-99.99,,,-99.99,meteohub,2013-03-12 06:47:00,
2013-03-12 01:55:00,33.3,22.1,29.96,North,-999,-999.0,-999.0,63,-99.99,,,-99.99,meteohub,2013-03-12 06:55:00,
2013-03-12 02:01:00,33.3,22.5,29.96,North,-999,-999.0,-999.0,64,-99.99,,,-99.99,meteohub,2013-03-12 07:01:00,
2013-03-12 02:07:00,33.4,22.6,29.97,North,-999,-999.0,-999.0,64,-99.99,,,-99.99,meteohub,2013-03-12 07:07:00,
2013-03-12 02:12:00,33.4,23.0,29.97,North,-999,-999.0,-999.0,65,-99.99,,,-99.99,meteohub,2013-03-12 07:12:00,
2013-03-12 02:17:00,33.4,23.0,29.97,North,-999,-999.0,-999.0,65,-99.99,,,-99.99,meteohub,2013-03-12 07:17:00,
2013-03-12 02:22:00,33.4,23.0,29.97,North,-999,-999.0,-999.0,65,-99.99,,,-99.99,meteohub,2013-03-12 07:22:00,
2013-03-12 02:27:00,33.4,23.0,29.98,North,-999,-999.0,-999.0,65,-99.99,,,-99.99,meteohub,2013-03-12 07:27:00,
2013-03-12 02:32:00,33.4,23.0,29.98,North,-999,-999.0,-999.0,65,-99.99,,,-99.99,meteohub,2013-03-12 07:32:00,
2013-03-12 02:38:00,33.8,23.0,29.98,North,-999,-999.0,-999.0,64,-99.99,,,-99.99,meteohub,2013-03-12 07:38:00,
2013-03-12 02:44:00,34.2,22.8,29.97,North,-999,-999.0,-999.0,63,-99.99,,,-99.99,meteohub,2013-03-12 07:44:00,
2013-03-12 02:51:00,34.2,22.5,29.97,North,-999,-999.0,-999.0,62,-99.99,,,-99.99,meteohub,2013-03-12 07:51:00,
2013-03-12 02:57:00,34.3,22.6,29.97,North,-999,-999.0,-999.0,62,-99.99,,,-99.99,meteohub,2013-03-12 07:57:00,
2013-03-12 03:02:00,34.2,22.8,29.99,North,-999,-999.0,-999.0,63,-99.99,,,-99.99,meteohub,2013-03-12 08:02:00,
2013-03-12 03:09:00,34.2,22.5,29.98,North,-999,-999.0,-999.0,62,-99.99,,,-99.99,meteohub,2013-03-12 08:09:00,
2013-03-12 03:15:00,34.3,22.3,29.97,North,-999,-999.0,-999.0,61,-99.99,,,-99.99,meteohub,2013-03-12 08:15:00,
2013-03-12 03:21:00,34.3,22.3,29.99,North,-999,-999.0,-999.0,61,-99.99,,,-99.99,meteohub,2013-03-12 08:21:00,
2013-03-12 03:27:00,34.5,22.5,29.99,North,-999,-999.0,-999.0,61,-99.99,,,-99.99,meteohub,2013-03-12 08:27:00,
2013-03-12 03:32:00,34.5,22.5,29.98,North,-999,-999.0,-999.0,61,-99.99,,,-99.99,meteohub,2013-03-12 08:32:00,
2013-03-12 03:37:00,34.7,23.0,29.98,North,-999,-999.0,-999.0,62,-99.99,,,-99.99,meteohub,2013-03-12 08:37:00,
2013-03-12 03:42:00,34.5,23.2,29.99,North,-999,-999.0,-999.0,63,-99.99,,,-99.99,meteohub,2013-03-12 08:42:00,
2013-03-12 03:49:00,34.2,23.5,29.99,North,-999,-999.0,-999.0,65,-99.99,,,-99.99,meteohub,2013-03-12 08:49:00,
2013-03-12 03:55:00,33.8,24.1,29.99,North,-999,-999.0,-999.0,67,-99.99,,,-99.99,meteohub,2013-03-12 08:55:00,
2013-03-12 04:01:00,33.8,24.4,29.99,North,-999,-999.0,-999.0,68,-99.99,,,-99.99,meteohub,2013-03-12 09:01:00,
2013-03-12 04:07:00,33.6,24.6,29.99,North,-999,-999.0,-999.0,69,-99.99,,,-99.99,meteohub,2013-03-12 09:07:00,
2013-03-12 04:13:00,33.4,24.8,29.99,North,-999,-999.0,-999.0,70,-99.99,,,-99.99,meteohub,2013-03-12 09:13:00,
2013-03-12 04:20:00,33.3,24.8,29.99,North,-999,-999.0,-999.0,71,-99.99,,,-99.99,meteohub,2013-03-12 09:20:00,
2013-03-12 04:26:00,33.1,25.0,29.99,North,-999,-999.0,-999.0,72,-99.99,,,-99.99,meteohub,2013-03-12 09:26:00,
2013-03-12 04:32:00,33.1,25.0,29.99,North,-999,-999.0,-999.0,72,-99.99,,,-99.99,meteohub,2013-03-12 09:32:00,
2013-03-12 04:39:00,32.9,25.2,29.99,North,-999,-999.0,-999.0,73,-99.99,,,-99.99,meteohub,2013-03-12 09:39:00,
2013-03-12 04:45:00,32.9,25.5,29.99,North,-999,-999.0,-999.0,74,-99.99,,,-99.99,meteohub,2013-03-12 09:45:00,
2013-03-12 04:51:00,32.7,25.7,30.00,North,-999,-999.0,-999.0,75,-99.99,,,-99.99,meteohub,2013-03-12 09:51:00,
2013-03-12 04:57:00,32.5,25.9,30.00,North,-999,-999.0,-999.0,76,-99.99,,,-99.99,meteohub,2013-03-12 09:57:00,
2013-03-12 05:03:00,32.4,25.7,30.00,North,-999,-999.0,-999.0,76,-99.99,,,-99.99,meteohub,2013-03-12 10:03:00,
2013-03-12 05:09:00,32.4,25.9,30.01,North,-999,-999.0,-999.0,77,-99.99,,,-99.99,meteohub,2013-03-12 10:09:00,
2013-03-12 05:15:00,32.2,26.1,30.01,North,-999,-999.0,-999.0,78,-99.99,,,-99.99,meteohub,2013-03-12 10:15:00,
2013-03-12 05:22:00,32.0,25.9,30.01,North,-999,-999.0,-999.0,78,-99.99,,,-99.99,meteohub,2013-03-12 10:22:00,
2013-03-12 05:28:00,31.8,26.1,30.02,North,-999,-999.0,-999.0,79,-99.99,,,-99.99,meteohub,2013-03-12 10:28:00,
2013-03-12 05:34:00,31.8,26.4,30.04,North,-999,-999.0,-999.0,80,-99.99,,,-99.99,meteohub,2013-03-12 10:34:00,
2013-03-12 05:40:00,31.8,26.6,30.04,North,-999,-999.0,-999.0,81,-99.99,,,-99.99,meteohub,2013-03-12 10:40:00,
2013-03-12 05:46:00,31.8,26.6,30.05,North,-999,-999.0,-999.0,81,-99.99,,,-99.99,meteohub,2013-03-12 10:46:00,
2013-03-12 05:52:00,32.0,26.6,30.04,North,-999,-999.0,-999.0,80,-99.99,,,-99.99,meteohub,2013-03-12 10:52:00,
2013-03-12 05:57:00,31.8,26.4,30.05,North,-999,-999.0,-999.0,80,-99.99,,,-99.99,meteohub,2013-03-12 10:57:00,
2013-03-12 06:05:00,31.8,26.6,30.03,North,-999,-999.0,-999.0,81,-99.99,,,-99.99,meteohub,2013-03-12 11:05:00,
2013-03-12 06:11:00,31.5,26.2,30.04,North,-999,-999.0,-999.0,81,-99.99,,,-99.99,meteohub,2013-03-12 11:11:00,
2013-03-12 06:17:00,31.3,26.1,30.05,North,-999,-999.0,-999.0,81,-99.99,,,-99.99,meteohub,2013-03-12 11:17:00,
2013-03-12 06:22:00,31.1,26.2,30.06,North,-999,-999.0,-999.0,82,-99.99,,,-99.99,meteohub,2013-03-12 11:22:00,
2013-03-12 06:27:00,30.9,26.4,30.06,North,-999,-999.0,-999.0,83,-99.99,,,-99.99,meteohub,2013-03-12 11:27:00,
2013-03-12 06:32:00,30.9,26.4,30.06,North,-999,-999.0,-999.0,83,-99.99,,,-99.99,meteohub,2013-03-12 11:32:00,
2013-03-12 06:37:00,30.7,26.4,30.05,North,-999,-999.0,-999.0,84,-99.99,,,-99.99,meteohub,2013-03-12 11:37:00,
2013-03-12 06:45:00,31.1,26.8,30.06,North,-999,-999.0,-999.0,84,-99.99,,,-99.99,meteohub,2013-03-12 11:45:00,
2013-03-12 06:51:00,31.1,26.6,30.06,North,-999,-999.0,-999.0,83,-99.99,,,-99.99,meteohub,2013-03-12 11:51:00,
2013-03-12 06:57:00,31.1,26.6,30.06,North,-999,-999.0,-999.0,83,-99.99,,,-99.99,meteohub,2013-03-12 11:57:00,
2013-03-12 07:03:00,30.6,26.1,30.06,North,-999,-999.0,-999.0,83,-99.99,,,-99.99,meteohub,2013-03-12 12:03:00,
2013-03-12 07:09:00,30.2,25.7,30.06,North,-999,-999.0,-999.0,83,-99.99,,,-99.99,meteohub,2013-03-12 12:09:00,
2013-03-12 07:15:00,29.8,25.5,30.07,North,-999,-999.0,-999.0,84,-99.99,,,-99.99,meteohub,2013-03-12 12:15:00,
2013-03-12 07:22:00,30.2,26.6,30.06,North,-999,-999.0,-999.0,86,-99.99,,,-99.99,meteohub,2013-03-12 12:22:00,
2013-03-12 07:27:00,30.4,26.4,30.06,North,-999,-999.0,-999.0,85,-99.99,,,-99.99,meteohub,2013-03-12 12:27:00,
2013-03-12 07:34:00,30.4,26.4,30.07,North,-999,-999.0,-999.0,85,-99.99,,,-99.99,meteohub,2013-03-12 12:34:00,
2013-03-12 07:40:00,30.2,26.2,30.08,North,-999,-999.0,-999.0,85,-99.99,,,-99.99,meteohub,2013-03-12 12:40:00,
2013-03-12 07:46:00,30.4,26.4,30.07,North,-999,-999.0,-999.0,85,-99.99,,,-99.99,meteohub,2013-03-12 12:46:00,
2013-03-12 07:52:00,30.7,26.8,30.07,North,-999,-999.0,-999.0,85,-99.99,,,-99.99,meteohub,2013-03-12 12:52:00,
2013-03-12 07:58:00,30.7,26.4,30.07,North,-999,-999.0,-999.0,84,-99.99,,,-99.99,meteohub,2013-03-12 12:58:00,
2013-03-12 08:05:00,30.7,26.4,30.07,North,-999,-999.0,-999.0,84,-99.99,,,-99.99,meteohub,2013-03-12 13:05:00,
2013-03-12 08:11:00,30.9,26.6,30.08,North,-999,-999.0,-999.0,84,-99.99,,,-99.99,meteohub,2013-03-12 13:11:00,
2013-03-12 08:17:00,31.1,26.8,30.08,North,-999,-999.0,-999.0,84,-99.99,,,-99.99,meteohub,2013-03-12 13:17:00,
2013-03-12 08:23:00,31.5,27.1,30.08,North,-999,-999.0,-999.0,84,-99.99,,,-99.99,meteohub,2013-03-12 13:23:00,
2013-03-12 08:29:00,32.2,27.9,30.09,North,-999,-999.0,-999.0,84,-99.99,,,-99.99,meteohub,2013-03-12 13:29:00,
2013-03-12 08:36:00,34.0,28.2,30.09,North,-999,-999.0,-999.0,79,-99.99,,,-99.99,meteohub,2013-03-12 13:36:00,
2013-03-12 08:42:00,34.2,28.0,30.10,North,-999,-999.0,-999.0,78,-99.99,,,-99.99,meteohub,2013-03-12 13:42:00,
2013-03-12 08:47:00,33.8,27.3,30.10,North,-999,-999.0,-999.0,77,-99.99,,,-99.99,meteohub,2013-03-12 13:47:00,
2013-03-12 08:52:00,34.0,27.9,30.10,North,-999,-999.0,-999.0,78,-99.99,,,-99.99,meteohub,2013-03-12 13:52:00,
2013-03-12 08:57:00,34.5,28.4,30.10,North,-999,-999.0,-999.0,78,-99.99,,,-99.99,meteohub,2013-03-12 13:57:00,
2013-03-12 09:02:00,34.7,28.2,30.11,North,-999,-999.0,-999.0,77,-99.99,,,-99.99,meteohub,2013-03-12 14:02:00,
2013-03-12 09:07:00,34.5,28.0,30.11,North,-999,-999.0,-999.0,77,-99.99,,,-99.99,meteohub,2013-03-12 14:07:00,
2013-03-12 09:12:00,35.1,28.6,30.11,North,-999,-999.0,-999.0,77,-99.99,,,-99.99,meteohub,2013-03-12 14:12:00,
2013-03-12 09:19:00,36.1,29.3,30.11,North,-999,-999.0,-999.0,76,-99.99,,,-99.99,meteohub,2013-03-12 14:19:00,
2013-03-12 09:25:00,37.0,29.1,30.11,North,-999,-999.0,-999.0,73,-99.99,,,-99.99,meteohub,2013-03-12 14:25:00,
2013-03-12 09:31:00,37.4,29.5,30.12,North,-999,-999.0,-999.0,73,-99.99,,,-99.99,meteohub,2013-03-12 14:31:00,
2013-03-12 09:37:00,38.3,29.7,30.12,North,-999,-999.0,-999.0,71,-99.99,,,-99.99,meteohub,2013-03-12 14:37:00,
2013-03-12 09:42:00,38.8,29.5,30.12,North,-999,-999.0,-999.0,69,-99.99,,,-99.99,meteohub,2013-03-12 14:42:00,
2013-03-12 09:47:00,38.8,29.8,30.13,North,-999,-999.0,-999.0,70,-99.99,,,-99.99,meteohub,2013-03-12 14:47:00,
2013-03-12 09:52:00,38.5,29.5,30.13,North,-999,-999.0,-999.0,70,-99.99,,,-99.99,meteohub,2013-03-12 14:52:00,
2013-03-12 09:57:00,39.4,30.7,30.13,North,-999,-999.0,-999.0,71,-99.99,,,-99.99,meteohub,2013-03-12 14:57:00,
2013-03-12 10:04:00,40.1,30.0,30.13,North,-999,-999.0,-999.0,67,-99.99,,,-99.99,meteohub,2013-03-12 15:04:00,
2013-03-12 10:10:00,41.0,30.2,30.14,North,-999,-999.0,-999.0,65,-99.99,,,-99.99,meteohub,2013-03-12 15:10:00,
2013-03-12 10:16:00,40.8,29.7,30.13,North,-999,-999.0,-999.0,64,-99.99,,,-99.99,meteohub,2013-03-12 15:16:00,
2013-03-12 10:22:00,40.5,29.7,30.14,North,-999,-999.0,-999.0,65,-99.99,,,-99.99,meteohub,2013-03-12 15:22:00,
2013-03-12 10:28:00,40.3,29.8,30.14,North,-999,-999.0,-999.0,66,-99.99,,,-99.99,meteohub,2013-03-12 15:28:00,
2013-03-12 10:34:00,40.8,29.7,30.14,North,-999,-999.0,-999.0,64,-99.99,,,-99.99,meteohub,2013-03-12 15:34:00,
2013-03-12 10:40:00,40.3,29.1,30.14,North,-999,-999.0,-999.0,64,-99.99,,,-99.99,meteohub,2013-03-12 15:40:00,
2013-03-12 10:47:00,41.7,30.4,30.14,North,-999,-999.0,-999.0,64,-99.99,,,-99.99,meteohub,2013-03-12 15:47:00,
2013-03-12 10:53:00,42.4,29.1,30.15,North,-999,-999.0,-999.0,59,-99.99,,,-99.99,meteohub,2013-03-12 15:53:00,
2013-03-12 10:59:00,42.8,29.5,30.14,North,-999,-999.0,-999.0,59,-99.99,,,-99.99,meteohub,2013-03-12 15:59:00,
2013-03-12 11:05:00,43.0,28.4,30.14,North,-999,-999.0,-999.0,56,-99.99,,,-99.99,meteohub,2013-03-12 16:05:00,
2013-03-12 11:12:00,43.5,28.0,30.14,North,-999,-999.0,-999.0,54,-99.99,,,-99.99,meteohub,2013-03-12 16:12:00,
2013-03-12 11:18:00,44.1,28.4,30.14,North,-999,-999.0,-999.0,54,-99.99,,,-99.99,meteohub,2013-03-12 16:18:00,
2013-03-12 11:24:00,44.8,30.0,30.15,North,-999,-999.0,-999.0,56,-99.99,,,-99.99,meteohub,2013-03-12 16:24:00,
2013-03-12 11:30:00,45.1,30.0,30.15,North,-999,-999.0,-999.0,55,-99.99,,,-99.99,meteohub,2013-03-12 16:30:00,
2013-03-12 11:37:00,46.0,28.9,30.14,North,-999,-999.0,-999.0,51,-99.99,,,-99.99,meteohub,2013-03-12 16:37:00,
2013-03-12 11:42:00,44.1,27.5,30.14,North,-999,-999.0,-999.0,52,-99.99,,,-99.99,meteohub,2013-03-12 16:42:00,
2013-03-12 11:48:00,44.8,30.0,30.14,North,-999,-999.0,-999.0,56,-99.99,,,-99.99,meteohub,2013-03-12 16:48:00,
2013-03-12 11:55:00,45.9,29.3,30.14,North,-999,-999.0,-999.0,52,-99.99,,,-99.99,meteohub,2013-03-12 16:55:00,
2013-03-12 12:01:00,46.9,30.7,30.14,North,-999,-999.0,-999.0,53,-99.99,,,-99.99,meteohub,2013-03-12 17:01:00,
2013-03-12 12:07:00,47.5,31.3,30.14,North,-999,-999.0,-999.0,53,-99.99,,,-99.99,meteohub,2013-03-12 17:07:00,
2013-03-12 12:12:00,48.2,28.4,30.13,North,-999,-999.0,-999.0,46,-99.99,,,-99.99,meteohub,2013-03-12 17:12:00,
2013-03-12 12:19:00,48.6,26.4,30.14,North,-999,-999.0,-999.0,42,-99.99,,,-99.99,meteohub,2013-03-12 17:19:00,
2013-03-12 12:25:00,47.7,25.7,30.14,North,-999,-999.0,-999.0,42,-99.99,,,-99.99,meteohub,2013-03-12 17:25:00,
2013-03-12 12:31:00,47.7,25.7,30.15,North,-999,-999.0,-999.0,42,-99.99,,,-99.99,meteohub,2013-03-12 17:31:00,
2013-03-12 12:37:00,48.2,26.2,30.14,North,-999,-999.0,-999.0,42,-99.99,,,-99.99,meteohub,2013-03-12 17:37:00,
2013-03-12 12:44:00,48.4,23.9,30.14,North,-999,-999.0,-999.0,38,-99.99,,,-99.99,meteohub,2013-03-12 17:44:00,
2013-03-12 12:50:00,47.1,24.6,30.14,North,-999,-999.0,-999.0,41,-99.99,,,-99.99,meteohub,2013-03-12 17:50:00,
2013-03-12 12:56:00,45.5,22.6,30.14,North,-999,-999.0,-999.0,40,-99.99,,,-99.99,meteohub,2013-03-12 17:56:00,
2013-03-12 13:02:00,45.9,24.6,30.14,North,-999,-999.0,-999.0,43,-99.99,,,-99.99,meteohub,2013-03-12 18:02:00,
2013-03-12 13:07:00,46.4,22.1,30.15,North,-999,-999.0,-999.0,38,-99.99,,,-99.99,meteohub,2013-03-12 18:07:00,
2013-03-12 13:15:00,46.9,23.2,30.15,North,-999,-999.0,-999.0,39,-99.99,,,-99.99,meteohub,2013-03-12 18:15:00,
2013-03-12 13:21:00,47.1,22.1,30.14,North,-999,-999.0,-999.0,37,-99.99,,,-99.99,meteohub,2013-03-12 18:21:00,
2013-03-12 13:27:00,47.7,22.6,30.14,North,-999,-999.0,-999.0,37,-99.99,,,-99.99,meteohub,2013-03-12 18:27:00,
2013-03-12 13:34:00,47.7,23.4,30.14,North,-999,-999.0,-999.0,38,-99.99,,,-99.99,meteohub,2013-03-12 18:34:00,
2013-03-12 13:40:00,48.4,25.2,30.14,North,-999,-999.0,-999.0,40,-99.99,,,-99.99,meteohub,2013-03-12 18:40:00,
2013-03-12 13:46:00,48.7,24.3,30.14,North,-999,-999.0,-999.0,38,-99.99,,,-99.99,meteohub,2013-03-12 18:46:00,
2013-03-12 13:52:00,48.2,23.7,30.14,North,-999,-999.0,-999.0,38,-99.99,,,-99.99,meteohub,2013-03-12 18:52:00,
2013-03-12 13:57:00,48.4,23.4,30.14,North,-999,-999.0,-999.0,37,-99.99,,,-99.99,meteohub,2013-03-12 18:57:00,
2013-03-12 14:02:00,48.0,23.0,30.13,North,-999,-999.0,-999.0,37,-99.99,,,-99.99,meteohub,2013-03-12 19:02:00,
2013-03-12 14:07:00,47.7,21.4,30.13,North,-999,-999.0,-999.0,35,-99.99,,,-99.99,meteohub,2013-03-12 19:07:00,
2013-03-12 14:13:00,47.8,22.1,30.13,North,-999,-999.0,-999.0,36,-99.99,,,-99.99,meteohub,2013-03-12 19:13:00,
2013-03-12 14:19:00,48.2,21.7,30.12,North,-999,-999.0,-999.0,35,-99.99,,,-99.99,meteohub,2013-03-12 19:19:00,
2013-03-12 14:26:00,48.9,20.3,30.12,North,-999,-999.0,-999.0,32,-99.99,,,-99.99,meteohub,2013-03-12 19:26:00,
2013-03-12 14:32:00,48.9,20.3,30.12,North,-999,-999.0,-999.0,32,-99.99,,,-99.99,meteohub,2013-03-12 19:32:00,
2013-03-12 14:38:00,50.0,21.4,30.12,North,-999,-999.0,-999.0,32,-99.99,,,-99.99,meteohub,2013-03-12 19:38:00,
2013-03-12 14:44:00,49.6,17.8,30.12,North,-999,-999.0,-999.0,28,-99.99,,,-99.99,meteohub,2013-03-12 19:44:00,
2013-03-12 14:50:00,50.2,16.5,30.12,North,-999,-999.0,-999.0,26,-99.99,,,-99.99,meteohub,2013-03-12 19:50:00,
2013-03-12 14:57:00,48.7,17.1,30.12,North,-999,-999.0,-999.0,28,-99.99,,,-99.99,meteohub,2013-03-12 19:57:00,
2013-03-12 15:02:00,47.7,16.9,30.12,North,-999,-999.0,-999.0,29,-99.99,,,-99.99,meteohub,2013-03-12 20:02:00,
2013-03-12 15:09:00,50.0,16.5,30.11,North,-999,-999.0,-999.0,26,-99.99,,,-99.99,meteohub,2013-03-12 20:09:00,
2013-03-12 15:15:00,50.5,20.3,30.12,North,-999,-999.0,-999.0,30,-99.99,,,-99.99,meteohub,2013-03-12 20:15:00,
2013-03-12 15:21:00,50.9,18.1,30.12,North,-999,-999.0,-999.0,27,-99.99,,,-99.99,meteohub,2013-03-12 20:21:00,
2013-03-12 15:27:00,50.5,20.3,30.12,North,-999,-999.0,-999.0,30,-99.99,,,-99.99,meteohub,2013-03-12 20:27:00,
2013-03-12 15:32:00,50.5,20.3,30.12,North,-999,-999.0,-999.0,30,-99.99,,,-99.99,meteohub,2013-03-12 20:32:00,
2013-03-12 15:37:00,50.4,16.7,30.12,North,-999,-999.0,-999.0,26,-99.99,,,-99.99,meteohub,2013-03-12 20:37:00,
2013-03-12 15:42:00,48.4,18.3,30.12,North,-999,-999.0,-999.0,30,-99.99,,,-99.99,meteohub,2013-03-12 20:42:00,
2013-03-12 15:48:00,48.7,18.0,30.12,North,-999,-999.0,-999.0,29,-99.99,,,-99.99,meteohub,2013-03-12 20:48:00,
2013-03-12 15:55:00,48.2,16.5,30.12,North,-999,-999.0,-999.0,28,-99.99,,,-99.99,meteohub,2013-03-12 20:55:00,
2013-03-12 16:01:00,47.3,18.9,30.12,North,-999,-999.0,-999.0,32,-99.99,,,-99.99,meteohub,2013-03-12 21:01:00,
2013-03-12 16:07:00,46.8,18.5,30.13,North,-999,-999.0,-999.0,32,-99.99,,,-99.99,meteohub,2013-03-12 21:07:00,
2013-03-12 16:12:00,46.6,19.0,30.13,North,-999,-999.0,-999.0,33,-99.99,,,-99.99,meteohub,2013-03-12 21:12:00,
2013-03-12 16:19:00,45.7,18.9,30.13,North,-999,-999.0,-999.0,34,-99.99,,,-99.99,meteohub,2013-03-12 21:19:00,
2013-03-12 16:25:00,45.9,19.8,30.14,North,-999,-999.0,-999.0,35,-99.99,,,-99.99,meteohub,2013-03-12 21:25:00,
2013-03-12 16:31:00,45.5,18.7,30.14,North,-999,-999.0,-999.0,34,-99.99,,,-99.99,meteohub,2013-03-12 21:31:00,
2013-03-12 16:37:00,44.4,19.8,30.14,North,-999,-999.0,-999.0,37,-99.99,,,-99.99,meteohub,2013-03-12 21:37:00,
2013-03-12 16:44:00,44.4,21.0,30.14,North,-999,-999.0,-999.0,39,-99.99,,,-99.99,meteohub,2013-03-12 21:44:00,
2013-03-12 16:50:00,46.2,22.6,30.15,North,-999,-999.0,-999.0,39,-99.99,,,-99.99,meteohub,2013-03-12 21:50:00,
2013-03-12 16:56:00,44.8,21.4,30.15,North,-999,-999.0,-999.0,39,-99.99,,,-99.99,meteohub,2013-03-12 21:56:00,
2013-03-12 17:02:00,43.3,21.7,30.15,North,-999,-999.0,-999.0,42,-99.99,,,-99.99,meteohub,2013-03-12 22:02:00,
2013-03-12 17:08:00,43.7,22.1,30.16,North,-999,-999.0,-999.0,42,-99.99,,,-99.99,meteohub,2013-03-12 22:08:00,
2013-03-12 17:14:00,43.2,21.6,30.16,North,-999,-999.0,-999.0,42,-99.99,,,-99.99,meteohub,2013-03-12 22:14:00,
2013-03-12 17:20:00,42.6,22.3,30.16,North,-999,-999.0,-999.0,44,-99.99,,,-99.99,meteohub,2013-03-12 22:20:00,
2013-03-12 17:27:00,43.2,22.6,30.15,North,-999,-999.0,-999.0,44,-99.99,,,-99.99,meteohub,2013-03-12 22:27:00,
2013-03-12 17:33:00,42.3,22.5,30.16,North,-999,-999.0,-999.0,45,-99.99,,,-99.99,meteohub,2013-03-12 22:33:00,
2013-03-12 17:39:00,43.2,21.6,30.16,North,-999,-999.0,-999.0,42,-99.99,,,-99.99,meteohub,2013-03-12 22:39:00,
2013-03-12 17:45:00,43.5,21.4,30.16,North,-999,-999.0,-999.0,41,-99.99,,,-99.99,meteohub,2013-03-12 22:45:00,
2013-03-12 17:52:00,44.2,20.8,30.17,North,-999,-999.0,-999.0,39,-99.99,,,-99.99,meteohub,2013-03-12 22:52:00,
2013-03-12 17:57:00,45.0,22.1,30.16,North,-999,-999.0,-999.0,40,-99.99,,,-99.99,meteohub,2013-03-12 22:57:00,
2013-03-12 18:02:00,44.1,20.7,30.17,North,-999,-999.0,-999.0,39,-99.99,,,-99.99,meteohub,2013-03-12 23:02:00,
2013-03-12 18:07:00,42.8,20.7,30.16,North,-999,-999.0,-999.0,41,-99.99,,,-99.99,meteohub,2013-03-12 23:07:00,
2013-03-12 18:12:00,42.4,21.0,30.17,North,-999,-999.0,-999.0,42,-99.99,,,-99.99,meteohub,2013-03-12 23:12:00,
2013-03-12 18:17:00,43.2,20.5,30.17,North,-999,-999.0,-999.0,40,-99.99,,,-99.99,meteohub,2013-03-12 23:17:00,
2013-03-12 18:22:00,43.0,20.8,30.17,North,-999,-999.0,-999.0,41,-99.99,,,-99.99,meteohub,2013-03-12 23:22:00,
2013-03-12 18:29:00,42.3,21.4,30.17,North,-999,-999.0,-999.0,43,-99.99,,,-99.99,meteohub,2013-03-12 23:29:00,
2013-03-12 18:35:00,41.5,20.7,30.17,North,-999,-999.0,-999.0,43,-99.99,,,-99.99,meteohub,2013-03-12 23:35:00,
2013-03-12 18:41:00,41.4,21.6,30.17,North,-999,-999.0,-999.0,45,-99.99,,,-99.99,meteohub,2013-03-12 23:41:00,
2013-03-12 18:47:00,41.5,21.2,30.17,North,-999,-999.0,-999.0,44,-99.99,,,-99.99,meteohub,2013-03-12 23:47:00,
2013-03-12 18:53:00,41.2,21.4,30.18,North,-999,-999.0,-999.0,45,-99.99,,,-99.99,meteohub,2013-03-12 23:53:00,
2013-03-12 18:59:00,40.8,21.2,30.17,North,-999,-999.0,-999.0,45,-99.99,,,-99.99,meteohub,2013-03-12 23:59:00,
2013-03-12 19:05:00,40.3,20.1,30.18,North,-999,-999.0,-999.0,44,-99.99,,,-99.99,meteohub,2013-03-13 00:05:00,
2013-03-12 19:12:00,39.7,20.1,30.18,North,-999,-999.0,-999.0,45,-99.99,,,-99.99,meteohub,2013-03-13 00:12:00,
2013-03-12 19:17:00,39.6,19.9,30.18,North,-999,-999.0,-999.0,45,-99.99,,,-99.99,meteohub,2013-03-13 00:17:00,
2013-03-12 19:22:00,39.4,19.8,30.18,North,-999,-999.0,-999.0,45,-99.99,,,-99.99,meteohub,2013-03-13 00:22:00,
2013-03-12 19:27:00,39.2,20.1,30.18,North,-999,-999.0,-999.0,46,-99.99,,,-99.99,meteohub,2013-03-13 00:27:00,
2013-03-12 19:32:00,39.2,20.1,30.19,North,-999,-999.0,-999.0,46,-99.99,,,-99.99,meteohub,2013-03-13 00:32:00,
2013-03-12 19:39:00,38.7,20.7,30.19,North,-999,-999.0,-999.0,48,-99.99,,,-99.99,meteohub,2013-03-13 00:39:00,
2013-03-12 19:45:00,38.5,21.0,30.19,North,-999,-999.0,-999.0,49,-99.99,,,-99.99,meteohub,2013-03-13 00:45:00,
2013-03-12 19:51:00,37.9,21.9,30.19,North,-999,-999.0,-999.0,52,-99.99,,,-99.99,meteohub,2013-03-13 00:51:00,
2013-03-12 19:57:00,37.6,21.9,30.20,North,-999,-999.0,-999.0,53,-99.99,,,-99.99,meteohub,2013-03-13 00:57:00,
2013-03-12 20:04:00,37.4,23.2,30.21,North,-999,-999.0,-999.0,56,-99.99,,,-99.99,meteohub,2013-03-13 01:04:00,
2013-03-12 20:10:00,37.0,23.2,30.21,North,-999,-999.0,-999.0,57,-99.99,,,-99.99,meteohub,2013-03-13 01:10:00,
2013-03-12 20:17:00,36.5,23.2,30.21,North,-999,-999.0,-999.0,58,-99.99,,,-99.99,meteohub,2013-03-13 01:17:00,
2013-03-12 20:22:00,36.3,23.0,30.21,North,-999,-999.0,-999.0,58,-99.99,,,-99.99,meteohub,2013-03-13 01:22:00,
2013-03-12 20:27:00,36.1,23.2,30.21,North,-999,-999.0,-999.0,59,-99.99,,,-99.99,meteohub,2013-03-13 01:27:00,
2013-03-12 20:35:00,35.8,23.2,30.22,North,-999,-999.0,-999.0,60,-99.99,,,-99.99,meteohub,2013-03-13 01:35:00,
2013-03-12 20:41:00,35.6,23.5,30.22,North,-999,-999.0,-999.0,61,-99.99,,,-99.99,meteohub,2013-03-13 01:41:00,
2013-03-12 20:47:00,35.4,23.7,30.22,North,-999,-999.0,-999.0,62,-99.99,,,-99.99,meteohub,2013-03-13 01:47:00,
2013-03-12 20:53:00,35.1,23.4,30.22,North,-999,-999.0,-999.0,62,-99.99,,,-99.99,meteohub,2013-03-13 01:53:00,
2013-03-12 21:00:00,34.9,23.5,30.22,North,-999,-999.0,-999.0,63,-99.99,,,-99.99,meteohub,2013-03-13 02:00:00,
2013-03-12 21:06:00,34.5,23.2,30.22,North,-999,-999.0,-999.0,63,-99.99,,,-99.99,meteohub,2013-03-13 02:06:00,
2013-03-12 21:12:00,34.0,23.0,30.22,North,-999,-999.0,-999.0,64,-99.99,,,-99.99,meteohub,2013-03-13 02:12:00,
2013-03-12 21:18:00,33.8,23.4,30.22,North,-999,-999.0,-999.0,65,-99.99,,,-99.99,meteohub,2013-03-13 02:18:00,
2013-03-12 21:25:00,33.6,23.5,30.22,North,-999,-999.0,-999.0,66,-99.99,,,-99.99,meteohub,2013-03-13 02:25:00,
2013-03-12 21:31:00,33.4,23.4,30.23,North,-999,-999.0,-999.0,66,-99.99,,,-99.99,meteohub,2013-03-13 02:31:00,
2013-03-12 21:37:00,32.9,23.2,30.22,North,-999,-999.0,-999.0,67,-99.99,,,-99.99,meteohub,2013-03-13 02:37:00,
2013-03-12 21:44:00,32.5,22.8,30.23,North,-999,-999.0,-999.0,67,-99.99,,,-99.99,meteohub,2013-03-13 02:44:00,
2013-03-12 21:50:00,32.5,23.5,30.23,North,-999,-999.0,-999.0,69,-99.99,,,-99.99,meteohub,2013-03-13 02:50:00,
2013-03-12 21:56:00,32.5,23.5,30.23,North,-999,-999.0,-999.0,69,-99.99,,,-99.99,meteohub,2013-03-13 02:56:00,
2013-03-12 22:02:00,32.4,23.7,30.24,North,-999,-999.0,-999.0,70,-99.99,,,-99.99,meteohub,2013-03-13 03:02:00,
2013-03-12 22:08:00,32.4,24.1,30.24,North,-999,-999.0,-999.0,71,-99.99,,,-99.99,meteohub,2013-03-13 03:08:00,
2013-03-12 22:14:00,32.4,24.1,30.25,North,-999,-999.0,-999.0,71,-99.99,,,-99.99,meteohub,2013-03-13 03:14:00,
2013-03-12 22:20:00,32.5,24.3,30.24,North,-999,-999.0,-999.0,71,-99.99,,,-99.99,meteohub,2013-03-13 03:20:00,
2013-03-12 22:27:00,32.5,23.9,30.25,North,-999,-999.0,-999.0,70,-99.99,,,-99.99,meteohub,2013-03-13 03:27:00,
2013-03-12 22:33:00,32.5,23.5,30.25,North,-999,-999.0,-999.0,69,-99.99,,,-99.99,meteohub,2013-03-13 03:33:00,
2013-03-12 22:39:00,32.5,23.5,30.25,North,-999,-999.0,-999.0,69,-99.99,,,-99.99,meteohub,2013-03-13 03:39:00,
2013-03-12 22:45:00,32.4,23.4,30.25,North,-999,-999.0,-999.0,69,-99.99,,,-99.99,meteohub,2013-03-13 03:45:00,
2013-03-12 22:51:00,32.2,23.2,30.25,North,-999,-999.0,-999.0,69,-99.99,,,-99.99,meteohub,2013-03-13 03:51:00,
2013-03-12 22:57:00,32.2,23.2,30.26,North,-999,-999.0,-999.0,69,-99.99,,,-99.99,meteohub,2013-03-13 03:57:00,
2013-03-12 23:01:00,32.0,23.0,30.26,North,-999,-999.0,-999.0,69,-99.99,,,-99.99,meteohub,2013-03-13 04:01:00,
2013-03-12 23:02:00,32.0,23.0,30.26,North,-999,-999.0,-999.0,69,-99.99,,,-99.99,meteohub,2013-03-13 04:02:00,
2013-03-12 23:04:00,32.0,23.0,30.25,North,-999,-999.0,-999.0,69,-99.99,,,-99.99,meteohub,2013-03-13 04:04:00,
2013-03-12 23:07:00,31.8,23.2,30.26,North,-999,-999.0,-999.0,70,-99.99,,,-99.99,meteohub,2013-03-13 04:07:00,
2013-03-12 23:12:00,31.6,23.0,30.26,North,-999,-999.0,-999.0,70,-99.99,,,-99.99,meteohub,2013-03-13 04:12:00,
2013-03-12 23:17:00,31.6,23.4,30.26,North,-999,-999.0,-999.0,71,-99.99,,,-99.99,meteohub,2013-03-13 04:17:00,
2013-03-12 23:22:00,31.5,23.2,30.26,North,-999,-999.0,-999.0,71,-99.99,,,-99.99,meteohub,2013-03-13 04:22:00,
2013-03-12 23:28:00,31.3,23.0,30.26,North,-999,-999.0,-999.0,71,-99.99,,,-99.99,meteohub,2013-03-13 04:28:00,
2013-03-12 23:34:00,31.1,22.8,30.26,North,-999,-999.0,-999.0,71,-99.99,,,-99.99,meteohub,2013-03-13 04:34:00,
2013-03-12 23:41:00,30.9,22.6,30.26,North,-999,-999.0,-999.0,71,-99.99,,,-99.99,meteohub,2013-03-13 04:41:00,
2013-03-12 23:47:00,30.7,22.8,30.27,North,-999,-999.0,-999.0,72,-99.99,,,-99.99,meteohub,2013-03-13 04:47:00,
2013-03-12 23:52:00,30.6,22.6,30.27,North,-999,-999.0,-999.0,72,-99.99,,,-99.99,meteohub,2013-03-13 04:52:00,
2013-03-12 23:59:00,30.6,22.6,30.27,North,-999,-999.0,-999.0,72,-99.99,,,-99.99,meteohub,2013-03-13 04:59:00,